Regional Weather Roundup
Issued by NWS

Home | Current Version | Previous Version | Text Only | Print | Product List | Glossary On
Versions: 1 2 3 4 5 6 7 8 9 10 11 12 13 14 15 16 17 18 19 20 21 22 23 24 25 26 27 28 29 30 31 32 33 34 35 36 37 38 39 40 41 42 43 44 45 46 47 48 49 50
000
ASUS43 KDMX 021607
RWRIA

WEATHER ROUNDUP FOR IOWA
NATIONAL WEATHER SERVICE DES MOINES IA
1100 AM CDT SUN AUG 02 2015

NOTE: "FAIR" INDICATES FEW OR NO CLOUDS BELOW 12,000 FEET WITH NO
SIGNIFICANT WEATHER AND/OR OBSTRUCTIONS TO VISIBILITY.

* - THESE STATIONS ARE NOT NWS STATIONS...THUS NOT UNDER NWS
QUALITY CONTROL.  THEY ALSO DO NOT REPORT WEATHER SUCH
AS PRECIPITATION OR FOG.

IAZ001>003-012>014-020>022-031>034-043>046-021700-
   NORTHWEST IOWA

CITY           SKY/WX    TMP DP  RH WIND       PRES   REMARKS
CARROLL *      SUNNY     82  73  74 W13       29.81S HX  88
CHEROKEE *     SUNNY     81  72  74 SW13      29.79F HX  84
DENISON *      SUNNY     81  73  78 SW10      29.81S HX  85
LE MARS *      SUNNY     79  72  78 S10       29.80F HX  82
ORANGE CITY *  SUNNY     79  70  73 SW9       29.79F HX  81
SHELDON *      SUNNY     81  70  69 SW10      29.77S HX  84
SPENCER        SUNNY     83  69  62 W10       29.78S HX  86
STORM LAKE *   SUNNY     79  72  78 W12G20    29.82S HX  82
$$

IAZ055>058-069>071-079>083-090>094-021700-
   SOUTHWEST IOWA

CITY           SKY/WX    TMP DP  RH WIND       PRES   REMARKS
ATLANTIC *     SUNNY     82  73  74 SW18      29.83F HX  88
AUDUBON *      SUNNY     82  73  74 SW14G21   29.84S HX  88
CLARINDA *     MOSUNNY   82  75  78 SW9       29.88S HX  89
COUNCIL BLFS * SUNNY     84  73  70 SW12G20   29.85F HX  91
CRESTON *      PTSUNNY   82  72  69 W15G22    29.88F HX  87
HARLAN  *      SUNNY     82  81  94 SW12G21   29.87S HX  95
LAMONI         MOSUNNY   84  73  69 SW17      29.87F HX  90
RED OAK *      SUNNY     84  75  74 SW12      29.86S HX  92
SHENANDOAH *   SUNNY     82  75  78 SW9       29.87S HX  89
$$

IAZ047>049-059>061-072>074-084-021700-
   CENTRAL IOWA

CITY           SKY/WX    TMP DP  RH WIND       PRES   REMARKS
AMES           SUNNY     83  73  72 W16       29.79S HX  89
ANKENY *       SUNNY     86  73  66 W15G24    29.80F HX  93
CHARITON *     MOSUNNY   82  72  69 SW14      29.85S HX  87
DES MOINES     MOSUNNY   88  71  57 W21       29.81S HX  94
GRINNELL*      SUNNY     81  70  69 SW16      29.83S HX  84
KNOXVILLE *    SUNNY     81  70  69 SW14      29.82S HX  84
MARSHALLTOWN   SUNNY     82  72  71 SW13      29.79F HX  87
PELLA *        SUNNY     84  75  74 W12       29.84S HX  92
PERRY *          N/A     84  73  70 W15       29.81S HX  91
$$

IAZ004>006-015-016-023>025-035-036-021700-
   NORTH CENTRAL IOWA

CITY           SKY/WX    TMP DP  RH WIND       PRES   REMARKS
ALGONA *       SUNNY     81  72  74 SW13G18   29.76F HX  84
CLARION *      SUNNY     81  72  74 SW15      29.77F HX  84
ESTHERVILLE    SUNNY     81  70  69 SW12G21   29.75F HX  84
FORT DODGE *   SUNNY     82  72  69 SW12      29.79F HX  87
MASON CITY     SUNNY     82  71  69 W17G26    29.76F HX  86
FOREST CITY *  SUNNY     81  70  69 SW13      29.75F HX  84
IOWA FALLS *     N/A     82  70  65 W13       29.79F HX  86
$$

IAZ007>011-017>019-026>030-037>042-050>054-066-021700-
   NORTHEAST IOWA

CITY           SKY/WX    TMP DP  RH WIND       PRES   REMARKS
CEDAR RAPIDS   MOSUNNY   78  72  81 SW10      29.81S HX  80
CHARLES CITY * SUNNY     81  72  74 SW15G25   29.75F HX  84
CLINTON *      SUNNY     82  68  61 SW16G23   29.84F HX  85
DECORAH *      SUNNY     81  70  69 SW9       29.73F HX  84
DUBUQUE        SUNNY     81  68  64 SW21      29.79S HX  84
MONTICELLO *   SUNNY     82  70  65 SW14G20   29.79F HX  86
OELWEIN *      SUNNY     81  70  69 SW13      29.79S HX  84
WATERLOO       SUNNY     82  69  64 SW13      29.77F HX  85
$$

IAZ064-065-067-068-078-021700-
   EAST CENTRAL IOWA

CITY           SKY/WX    TMP DP  RH WIND       PRES   REMARKS
DAVENPORT      SUNNY     82  67  60 SW15G21   29.83F HX  84
IOWA CITY      SUNNY     82  68  62 SW12      29.82F HX  85
MT. PLEASANT * HVY RAIN  77  66  69 S10       29.85F
MUSCATINE *    SUNNY     82  68  61 S9G17     29.83F HX  85
QUAD CITIES    MOSUNNY   83  66  56 SW12G23   29.83F HX  85
$$

IAZ062-063-075>077-085>089-095>099-021700-
   SOUTHEAST IOWA

CITY           SKY/WX    TMP DP  RH WIND       PRES   REMARKS
BURLINGTON     PTSUNNY   81  70  69 SW14      29.87F HX  84
FAIRFIELD *    SUNNY     81  68  65 SW8G17    29.85S HX  83
FORT MADISON * SUNNY     79  70  73 SW9       29.88F HX  81
KEOKUK *         N/A    N/A N/A N/A MISG        N/A
OSKALOOSA *      N/A     82  73  74 SW8       29.84F HX  88
CENTERVILLE *  SUNNY     81  72  74 SW12      29.88S HX  84
OTTUMWA        MOSUNNY   80  73  79 SW9       29.83S HX  84
WASHINGTON *   SUNNY     81  70  69 SW10G16   29.85F HX  84
$$

ABBREVIATIONS USED IN REMARKS
   TC - TEMPERATURES IN CELSIUS
  WCI - WIND CHILL INDEX
   HX - HEAT INDEX
  VSB - VISIBILITY
$$




USA.gov is the U.S. government's official web portal to all federal, state and local government web resources and services.